CAPE
2 1 1 1 0 0 0 0 0 0 0 0 0 0 0 0 0 0 0 0 0 0 0 0 51 226 326 537 630 288 261 195 116 133 329 553 536 356 120 163 155 138 191 287 238
2 1 0 0 0 0 0 1 0 0 0 0 0 0 0 0 0 0 0 0 0 0 0 0 0 48 143 219 553 240 363 184 82 68 275 642 599 431 197 164 169 211 172 272 216
1 0 0 0 0 0 0 0 0 0 0 0 1 0 0 0 0 0 0 0 0 0 0 0 0 0 2 103 296 118 242 169 58 39 262 607 670 535 240 95 174 280 229 266 248
0 0 0 0 0 0 0 0 0 0 0 1 2 0 0 0 0 0 0 0 0 0 0 0 0 0 0 21 100 89 50 312 130 25 67 510 702 675 346 151 112 367 276 287 292
0 0 0 0 0 0 0 0 0 0 0 0 2 1 0 0 0 0 0 0 0 0 0 0 0 0 0 0 1 64 2 40 101 16 6 203 584 545 546 199 158 425 334 332 355
0 0 0 0 0 0 0 0 0 0 1 2 2 0 0 0 0 0 0 0 0 0 0 0 0 0 0 0 0 0 0 0 0 7 0 80 327 571 646 489 335 391 375 380 417
0 0 0 0 0 0 0 0 0 0 0 3 2 0 0 0 0 0 0 0 0 0 0 0 0 0 0 0 0 0 0 0 0 0 0 62 208 504 717 668 615 486 444 394 415
0 0 0 0 0 0 0 0 0 0 0 1 3 0 0 0 0 0 0 0 0 0 0 0 0 0 0 0 0 0 0 0 0 0 0 4 109 443 743 820 798 624 466 320 361
0 0 0 0 0 0 0 0 0 0 0 2 0 0 0 0 0 0 0 0 0 0 0 0 0 0 0 0 0 0 0 0 0 0 0 11 62 132 685 772 854 785 475 303 277
0 0 0 0 0 0 0 0 0 0 0 0 0 0 0 0 0 0 0 0 0 0 0 0 0 0 0 0 0 0 0 0 0 0 2 72 51 32 353 529 752 837 592 454 274
0 0 0 0 0 0 0 0 0 0 0 0 0 0 0 0 0 0 0 0 0 0 0 0 0 0 0 0 0 0 0 0 0 0 0 1 33 41 44 356 416 773 725 635 449
0 0 0 0 0 0 0 0 0 0 0 0 0 0 0 0 0 0 0 0 0 0 0 0 0 0 0 0 0 0 0 0 0 0 0 0 0 0 1 84 238 560 717 688 548
0 0 0 0 0 0 0 0 0 0 0 0 0 0 0 0 0 0 0 0 0 0 0 0 0 0 0 0 0 0 0 0 0 0 0 0 0 0 0 0 48 244 604 651 640
0 0 0 0 0 0 0 0 0 0 0 0 0 0 0 0 0 0 0 0 0 0 0 0 0 0 0 0 0 0 0 0 0 0 0 0 0 0 0 3 51 98 439 671 650
0 0 0 0 0 0 0 0 0 0 0 0 0 0 0 0 0 0 0 0 0 0 0 0 0 0 0 0 0 0 0 0 0 0 0 0 0 0 0 0 26 156 235 621 673
0 0 0 0 0 0 0 0 0 0 0 0 0 0 0 0 0 0 0 0 0 0 0 0 0 0 0 0 0 0 0 0 0 0 0 0 0 0 0 0 0 52 158 495 614
0 0 0 0 0 0 0 0 0 0 0 0 0 0 0 0 0 0 0 0 0 0 0 0 0 0 0 0 0 0 0 0 0 0 0 0 0 0 0 0 0 0 69 305 646
0 0 0 0 0 0 0 0 0 0 0 0 0 0 0 0 0 0 0 0 0 0 0 0 0 0 0 0 0 0 0 0 0 0 0 0 0 0 0 0 0 0 0 188 449
0 0 0 0 0 0 0 0 0 0 1 0 0 0 0 0 0 0 0 0 0 0 0 0 0 0 0 0 0 0 0 0 0 0 0 0 0 0 0 0 0 0 0 0 175
0 0 0 0 0 0 0 0 0 0 1 0 0 0 0 0 0 0 0 0 0 0 0 0 0 0 0 0 0 0 0 0 0 0 0 0 0 0 0 0 0 0 0 0 1
0 0 0 0 0 0 0 0 0 1 11 0 2 2 0 0 0 0 0 0 0 0 0 0 0 0 0 0 0 0 0 0 0 0 0 0 0 0 0 0 0 0 0 0 4
0 0 0 0 0 0 2 0 0 17 33 30 1 0 7 5 0 0 0 0 0 0 0 0 0 0 0 0 0 0 0 0 0 0 0 0 0 0 0 0 0 0 0 0 0
0 0 0 0 0 1 3 1 8 17 15 2 18 16 1 5 0 2 5 0 0 0 0 0 0 0 0 0 0 0 0 0 0 0 0 0 0 0 0 0 0 0 0 0 0
0 0 2 4 5 12 8 8 12 27 16 12 0 7 9 1 2 2 2 0 0 0 0 0 0 0 0 0 0 0 0 0 0 0 0 0 0 0 0 0 0 0 0 0 0
9 5 6 6 4 3 6 13 10 4 13 11 12 1 1 3 4 2 2 0 0 0 0 0 0 0 0 0 0 0 0 0 0 0 0 0 0 0 0 0 0 0 0 0 0
6 6 12 6 18 7 9 7 13 2 3 7 11 0 0 1 1 3 1 0 0 0 0 0 0 0 0 0 0 0 0 0 0 0 0 0 0 0 0 0 0 0 0 0 0
17 16 26 2 11 4 13 5 5 6 8 10 12 4 1 1 3 1 0 0 0 0 0 0 0 0 0 0 0 0 0 0 0 0 0 0 0 0 0 0 0 0 0 0 0
CIN
-0 -0 -0 -0 -0 -0 -0 -0 -0 -0 -0 -0 -0 -0 -0 -0 -0 -0 -0 -0 -0 -0 -0 -0 -256 -167 -117 -70 -65 -119 -17 -2 -3 -4 -3 -21 -15 -37 -53 -69 -77 -55 -37 -71 -101
-0 -0 -0 -0 -0 -0 -0 -0 -0 -0 -0 -0 -0 -0 -0 -0 -0 -0 -0 -0 -0 -0 -0 -0 -0 -226 -154 -94 -55 -80 -3 -1 -37 -19 -3 -9 -3 -31 -32 -56 -56 -56 -59 -75 -94
-0 -0 -0 -0 -0 -0 -0 -0 -0 -0 -0 -0 -0 -0 -0 -0 -0 -0 -0 -0 -0 -0 -0 -0 -0 -0 -44 -92 -67 -61 -20 -20 -40 -24 -10 -3 -1 -19 -19 -33 -33 -52 -91 -98 -82
-0 -0 -0 -0 -0 -0 -0 -0 -0 -0 -0 -0 -0 -0 -0 -0 -0 -0 -0 -0 -0 -0 -0 -0 -0 -0 -0 -142 -72 -71 -73 -18 -13 -35 -26 -3 -1 -11 -19 -16 -30 -48 -91 -97 -101
-0 -0 -0 -0 -0 -0 -0 -0 -0 -0 -0 -0 -0 -0 -0 -0 -0 -0 -0 -0 -0 -0 -0 -0 -0 -0 -0 -0 -46 -89 -5 -56 -41 -55 -21 -19 -14 -2 -12 -37 -44 -59 -108 -92 -54
-0 -0 -0 -0 -0 -0 -0 -0 -0 -0 -0 -0 -0 -0 -0 -0 -0 -0 -0 -0 -0 -0 -0 -0 -0 -0 -0 -0 -0 -0 -0 -0 -0 -57 -0 -31 -13 -24 -14 -49 -69 -96 -121 -110 -63
-0 -0 -0 -0 -0 -0 -0 -0 -0 -0 -0 -0 -0 -0 -0 -0 -0 -0 -0 -0 -0 -0 -0 -0 -0 -0 -0 -0 -0 -0 -0 -0 -0 -0 -0 -34 -21 -27 -15 -73 -61 -87 -110 -107 -94
-0 -0 -0 -0 -0 -0 -0 -0 -0 -0 -0 -0 -0 -0 -0 -0 -0 -0 -0 -0 -0 -0 -0 -0 -0 -0 -0 -0 -0 -0 -0 -0 -0 -0 -0 -24 -2 -22 -36 -65 -61 -85 -96 -113 -107
-0 -0 -0 -0 -0 -0 -0 -0 -0 -0 -0 -0 -0 -0 -0 -0 -0 -0 -0 -0 -0 -0 -0 -0 -0 -0 -0 -0 -0 -0 -0 -0 -0 -0 -0 -36 -2 -2 -38 -44 -42 -85 -97 -120 -122
-0 -0 -0 -0 -0 -0 -0 -0 -0 -0 -0 -0 -0 -0 -0 -0 -0 -0 -0 -0 -0 -0 -0 -0 -0 -0 -0 -0 -0 -0 -0 -0 -0 -0 -17 -38 -5 -20 -27 -39 -44 -71 -89 -107 -132
-0 -0 -0 -0 -0 -0 -0 -0 -0 -0 -0 -0 -0 -0 -0 -0 -0 -0 -0 -0 -0 -0 -0 -0 -0 -0 -0 -0 -0 -0 -0 -0 -0 -0 -0 -26 -9 -10 -34 -61 -47 -65 -92 -81 -100
-0 -0 -0 -0 -0 -0 -0 -0 -0 -0 -0 -0 -0 -0 -0 -0 -0 -0 -0 -0 -0 -0 -0 -0 -0 -0 -0 -0 -0 -0 -0 -0 -0 -0 -0 -0 -0 -0 -5 -52 -38 -55 -87 -79 -71
-0 -0 -0 -0 -0 -0 -0 -0 -0 -0 -0 -0 -0 -0 -0 -0 -0 -0 -0 -0 -0 -0 -0 -0 -0 -0 -0 -0 -0 -0 -0 -0 -0 -0 -0 -0 -0 -0 -0 -0 -44 -45 -69 -73 -67
-0 -0 -0 -0 -0 -0 -0 -0 -0 -0 -0 -0 -0 -0 -0 -0 -0 -0 -0 -0 -0 -0 -0 -0 -0 -0 -0 -0 -0 -0 -0 -0 -0 -0 -0 -0 -0 -0 -0 -18 -56 -53 -53 -67 -73
-0 -0 -0 -0 -0 -0 -0 -0 -0 -0 -0 -0 -0 -0 -0 -0 -0 -0 -0 -0 -0 -0 -0 -0 -0 -0 -0 -0 -0 -0 -0 -0 -0 -0 -0 -0 -0 -0 -0 -0 -35 -44 -51 -66 -78
-0 -0 -0 -0 -0 -0 -0 -0 -0 -0 -0 -0 -0 -0 -0 -0 -0 -0 -0 -0 -0 -0 -0 -0 -0 -0 -0 -0 -0 -0 -0 -0 -0 -0 -0 -0 -0 -0 -0 -0 -0 -39 -42 -57 -71
-0 -0 -0 -0 -0 -0 -0 -0 -0 -0 -0 -0 -0 -0 -0 -0 -0 -0 -0 -0 -0 -0 -0 -0 -0 -0 -0 -0 -0 -0 -0 -0 -0 -0 -0 -0 -0 -0 -0 -0 -0 -0 -34 -48 -73
-0 -0 -0 -0 -0 -0 -0 -0 -0 -0 -0 -0 -0 -0 -0 -0 -0 -0 -0 -0 -0 -0 -0 -0 -0 -0 -0 -0 -0 -0 -0 -0 -0 -0 -0 -0 -0 -0 -0 -0 -0 -0 -1 -33 -54
-0 -0 -0 -0 -0 -0 -0 -0 -1 -0 -3 -0 -0 -0 -0 -0 -0 -0 -0 -0 -0 -0 -0 -0 -0 -0 -0 -0 -0 -0 -0 -0 -0 -0 -0 -0 -0 -0 -0 -0 -0 -0 -0 -0 -43
-0 -0 -0 -0 -0 -0 -0 -0 -0 -0 -1 -0 -0 -0 -0 -0 -0 -0 -0 -0 -0 -0 -0 -0 -0 -0 -0 -0 -0 -0 -0 -0 -0 -0 -0 -0 -0 -0 -0 -0 -0 -0 -0 -0 -45
-0 -0 -0 -0 -0 -0 -0 -0 -0 -1 -2 -0 -1 -1 -0 -0 -0 -0 -0 -0 -0 -0 -0 -0 -0 -0 -0 -0 -0 -0 -0 -0 -0 -0 -0 -0 -0 -0 -0 -0 -0 -0 -0 -0 -53
-0 -0 -0 -0 -0 -0 -3 -0 -0 -2 -4 -2 -2 -0 -2 -2 -0 -0 -0 -0 -0 -0 -0 -0 -0 -0 -0 -0 -0 -0 -0 -0 -0 -0 -0 -0 -0 -0 -0 -0 -0 -0 -0 -0 -0
-0 -0 -0 -0 -0 -2 -2 -4 -2 -1 -3 -1 -1 -6 -1 -3 -3 -1 -2 -0 -0 -0 -0 -0 -0 -0 -0 -0 -0 -0 -0 -0 -0 -0 -0 -0 -0 -0 -0 -0 -0 -0 -0 -0 -0
-0 -0 -1 -0 -1 -0 -1 -11 -2 -4 -2 -2 -0 -4 -2 -3 -7 -3 -1 -0 -0 -0 -0 -0 -0 -0 -0 -0 -0 -0 -0 -0 -0 -0 -0 -0 -0 -0 -0 -0 -0 -0 -0 -0 -0
-1 -1 -0 -2 -4 -1 -1 -4 -4 -3 -2 -2 -6 -0 -0 -1 -5 -5 -4 -0 -0 -0 -0 -0 -0 -0 -0 -0 -0 -0 -0 -0 -0 -0 -0 -0 -0 -0 -0 -0 -0 -0 -0 -0 -0
-1 -0 -0 -1 -0 -1 -2 -2 -7 -4 -4 -2 -2 -0 -1 -0 -0 -0 -2 -1 -0 -0 -0 -0 -0 -0 -0 -0 -0 -0 -0 -0 -0 -0 -0 -0 -0 -0 -0 -0 -0 -0 -0 -0 -0
-0 -0 -0 -0 -1 -1 -3 -1 -2 -4 -1 -2 -2 -3 -4 -1 -0 -1 -0 -0 -0 -0 -0 -0 -0 -0 -0 -0 -0 -0 -0 -0 -0 -0 -0 -0 -0 -0 -0 -0 -0 -0 -0 -0 -0
Wind_Speed
32 33 33 32 32 32 31 31 30 30 29 29 29 29 29 29 30 20 27 26 16 6 2 12 14 9 7 8 3 14 16 11 10 10 10 16 16 13 10 11 6 4 4 15 26
34 34 34 34 34 34 33 33 32 32 31 30 30 30 30 29 30 32 22 4 3 12 7 13 13 14 13 10 5 14 22 11 11 12 10 13 14 14 14 13 10 6 6 19 25
35 35 36 36 36 36 35 35 35 34 33 32 31 29 29 28 28 19 15 6 10 16 9 9 9 10 14 4 4 2 25 8 10 11 12 13 13 13 14 14 13 11 13 21 23
36 37 37 37 37 38 37 37 38 36 34 33 30 27 26 20 16 15 16 4 8 19 10 10 11 18 9 6 3 16 2 10 8 15 13 10 13 16 15 14 11 8 12 20 24
37 38 38 39 39 39 39 40 38 37 36 33 27 21 19 16 15 16 9 7 10 15 17 17 17 13 24 15 11 4 13 20 24 21 18 13 12 13 15 12 11 10 13 19 25
39 39 40 40 40 40 41 40 39 39 36 30 18 14 15 15 21 8 4 6 11 11 14 20 14 16 28 24 19 11 7 20 23 21 23 7 8 12 13 11 12 13 15 20 27
41 42 42 42 43 43 42 41 40 37 34 20 9 10 16 23 17 11 3 12 12 14 12 14 15 16 19 18 22 17 14 19 19 19 14 6 5 9 9 12 12 13 14 20 27
43 44 44 45 45 45 43 41 36 33 24 13 5 12 24 16 14 16 1 8 10 15 10 9 18 15 17 19 21 22 19 23 23 13 12 2 6 8 10 14 13 12 14 19 27
44 45 46 47 47 46 44 39 28 24 18 9 11 17 26 14 14 4 2 4 8 11 6 6 20 17 16 31 29 17 26 13 11 12 9 2 5 5 9 11 12 12 13 17 26
46 47 48 48 49 45 43 32 22 18 17 19 19 21 24 21 13 7 5 5 11 8 4 14 10 15 17 18 32 16 29 27 12 10 8 4 16 8 4 10 11 12 14 19 29
48 49 49 50 49 43 38 28 29 25 24 26 24 25 21 19 11 10 9 9 6 15 8 18 16 27 17 26 43 33 32 37 22 21 15 7 17 26 4 11 15 12 16 25 33
49 50 50 50 48 39 35 27 26 29 40 35 38 40 31 21 20 12 14 10 12 17 13 13 28 20 14 17 32 38 33 38 27 20 25 20 31 32 10 18 15 15 18 28 35
50 51 51 50 40 34 29 27 30 33 36 37 30 32 28 24 26 16 20 16 16 19 26 18 12 23 22 23 18 21 19 32 38 24 35 32 36 35 10 6 7 14 18 22 35
51 51 51 49 32 35 28 34 33 29 38 35 29 28 22 22 34 21 20 20 19 22 18 38 13 16 22 29 26 26 20 32 37 32 30 18 39 33 27 8 24 21 21 28 31
52 52 50 38 35 33 37 36 30 22 42 21 22 15 18 27 21 26 19 24 24 20 21 16 20 12 31 23 26 41 27 28 36 41 40 44 35 38 14 30 24 33 30 30 36
51 52 46 32 31 33 38 34 21 31 43 28 23 24 22 28 30 18 24 29 32 32 25 32 26 23 29 21 24 21 17 21 27 35 52 47 41 45 38 36 39 38 35 31 38
51 49 37 32 37 38 36 26 31 41 24 29 29 27 30 28 32 27 30 34 33 32 31 27 32 29 23 16 14 16 16 12 30 45 48 35 49 40 29 43 42 39 21 35 33
47 39 29 30 36 36 31 29 41 30 33 35 34 39 35 29 33 33 31 41 41 35 30 34 40 26 20 19 15 25 21 13 33 39 42 37 48 46 43 41 23 40 28 23 36
41 33 27 33 35 30 29 36 38 32 33 35 37 35 32 30 29 34 37 39 41 38 39 33 42 23 26 22 19 19 31 29 28 24 32 38 39 39 32 32 35 44 27 24 23
35 29 29 34 28 26 28 33 33 32 35 33 37 29 34 33 35 33 32 30 39 40 33 40 40 30 28 25 32 26 20 23 42 39 37 34 39 34 22 27 29 19 17 14 21
30 26 29 32 20 25 28 30 33 33 32 33 34 38 35 36 33 33 31 26 27 31 33 36 36 32 29 35 28 28 25 24 20 36 33 33 32 33 33 23 21 18 18 14 16
31 28 28 24 21 25 28 30 29 31 30 35 36 37 38 34 34 32 31 26 25 31 38 35 35 33 38 32 34 31 28 25 35 40 45 35 29 13 17 16 15 17 16 13 30
31 24 23 20 25 29 29 29 27 28 27 27 31 31 33 36 33 30 28 23 23 25 31 31 42 41 32 36 37 43 34 33 33 34 46 44 27 17 14 15 16 20 24 23 31
26 28 24 20 21 24 31 28 27 25 23 25 27 31 36 40 33 30 29 25 24 25 28 32 38 46 45 37 37 43 41 39 33 53 48 46 40 17 17 9 3 10 16 21 23
24 25 23 23 21 19 17 28 27 25 24 26 23 24 30 38 40 39 32 31 27 25 27 31 43 39 39 32 32 38 44 41 43 47 56 45 45 42 29 19 14 17 17 18 20
23 24 20 18 15 16 15 20 26 26 27 24 24 27 26 31 35 34 32 31 31 29 29 28 37 38 45 36 34 39 38 41 48 48 53 52 48 30 32 34 38 36 33 31 32
16 15 17 18 15 16 15 14 29 28 23 23 27 30 29 28 31 37 38 37 38 36 34 33 36 39 49 41 40 51 47 43 42 43 44 54 44 40 42 35 35 34 33 35 35
Wind_Direction
324 322 320 317 313 309 305 300 296 292 287 283 282 279 282 278 272 300 217 210 162 159 247 143 142 135 129 105 114 296 285 317 3 336 5 75 57 31 7 63 344 331 305 111 123
325 323 320 317 313 309 306 303 297 292 289 285 285 282 283 279 271 241 236 187 183 151 207 164 161 148 149 137 359 136 230 297 315 273 2 83 64 56 44 77 74 18 54 116 127
327 324 321 317 314 310 306 301 296 293 288 285 293 293 287 282 291 302 309 168 167 160 181 206 228 164 159 271 134 51 201 349 2 303 303 86 82 64 62 81 102 92 103 126 133
329 325 321 318 314 311 306 301 297 293 290 286 292 305 304 317 322 329 311 82 154 157 163 187 183 166 245 239 202 276 52 282 341 277 296 65 86 109 93 35 79 85 116 133 141
330 326 322 318 314 310 307 303 298 291 288 290 304 317 321 316 306 323 351 45 126 155 159 163 170 198 244 253 269 194 283 263 248 246 254 109 104 108 121 45 74 84 117 138 147
329 326 322 318 314 309 307 304 299 291 285 297 314 324 321 238 298 324 342 98 130 151 166 163 175 232 248 251 254 282 267 259 254 260 242 351 73 112 118 89 87 103 118 139 154
331 327 323 319 314 310 306 303 300 298 295 311 316 317 307 216 306 314 132 146 140 149 166 173 246 177 260 258 258 261 272 266 271 267 286 337 57 116 83 111 111 119 122 138 154
330 328 324 321 316 311 308 304 304 309 324 328 320 310 293 314 296 293 204 158 153 153 158 207 252 181 262 267 260 254 264 261 258 261 278 7 347 126 112 128 129 129 134 141 156
330 328 324 320 318 313 310 309 320 330 340 358 320 295 290 313 289 207 231 208 164 155 159 188 248 245 185 244 246 249 250 243 250 264 281 204 330 52 127 134 137 139 142 146 157
331 328 325 322 319 314 313 318 325 332 326 315 306 291 283 286 293 198 221 258 155 153 152 160 180 240 236 196 185 241 239 249 216 258 257 232 170 328 138 142 147 147 148 153 167
334 329 327 324 321 316 320 322 311 306 301 287 290 279 289 294 296 248 195 156 162 155 176 165 176 185 203 202 219 241 243 236 251 257 263 235 183 265 296 155 162 154 157 166 180
337 333 328 324 322 324 321 319 319 307 287 284 273 266 271 287 268 250 185 209 180 174 169 166 186 179 195 238 244 240 243 236 250 256 257 269 211 244 281 170 164 162 164 174 183
335 331 326 324 327 332 329 321 318 311 289 284 278 271 267 256 259 241 190 202 195 186 178 179 261 182 179 183 208 237 238 244 233 258 248 255 227 214 269 225 274 167 169 168 184
338 335 331 325 326 329 324 320 315 311 285 279 278 275 259 253 255 250 212 204 236 196 196 201 230 181 180 187 184 194 237 251 246 249 257 260 225 204 196 199 184 177 173 177 178
339 336 333 335 325 321 316 315 313 304 276 285 276 283 269 241 266 237 218 220 245 242 209 218 200 219 188 185 183 210 250 252 251 247 248 239 254 223 264 193 184 195 187 181 186
344 340 337 338 330 325 319 312 305 281 269 276 278 268 264 248 255 251 227 234 248 247 244 249 257 243 245 255 196 255 249 257 258 254 234 222 214 225 209 203 215 210 199 183 192
348 343 342 340 326 327 318 304 281 266 289 275 271 271 261 253 244 245 231 223 233 235 236 242 246 251 251 226 235 191 182 241 250 226 221 205 227 218 252 230 226 224 207 197 182
355 355 352 343 335 327 318 286 268 280 272 283 276 270 258 251 250 243 242 235 233 238 245 241 245 228 225 214 209 186 188 222 224 240 221 242 223 220 239 239 259 237 249 249 232
359 5 6 349 338 333 307 275 271 277 283 278 277 262 251 256 256 247 242 243 234 233 242 241 246 227 243 226 220 213 195 189 255 266 248 242 222 241 255 253 249 234 252 247 245
6 8 10 358 354 339 303 280 278 282 281 277 263 264 254 256 252 249 239 252 242 229 249 248 245 243 231 229 238 245 216 228 211 217 216 236 232 250 262 248 248 236 198 237 242
14 16 15 3 11 341 308 293 289 289 281 265 262 260 260 258 253 248 246 256 246 232 245 242 244 236 229 229 220 227 235 215 246 215 211 237 245 248 253 256 245 231 196 197 231
16 16 17 20 11 353 324 309 302 291 287 271 260 261 259 259 252 248 244 249 254 249 239 236 243 240 236 239 237 233 238 218 244 200 220 238 243 280 272 262 249 244 235 200 239
15 19 27 35 15 353 338 315 309 300 291 277 261 261 260 253 248 249 249 255 262 253 238 238 237 236 240 236 238 237 233 239 243 251 220 214 248 266 278 276 260 250 247 248 244
19 18 25 33 32 12 343 319 308 311 297 290 270 270 257 248 249 249 250 254 260 257 252 244 239 235 237 243 238 236 236 239 237 229 230 218 228 263 266 292 277 261 258 255 254
25 23 27 19 22 20 17 324 306 304 303 291 270 274 261 246 247 248 253 254 253 259 253 245 235 240 242 247 245 242 237 236 240 240 221 235 228 227 249 264 275 267 269 272 264
21 20 27 16 27 24 28 1 312 301 299 289 274 279 272 253 248 249 252 250 249 252 250 249 237 241 239 243 246 244 242 242 243 244 241 233 237 253 254 254 248 252 259 262 261
29 30 27 22 26 23 29 24 298 296 296 288 286 278 270 267 258 258 258 256 253 251 249 246 242 242 237 241 247 244 241 244 246 246 246 237 248 253 246 256 256 259 267 266 265